METAR LSZS 031220Z 05002KT CAVOK M04/M06 Q1001 RMK L TL180=
Diese Daten sind ohne Gewähr und dürfen nicht für die Flugvorbereitung verwendet werden.
Information contained in this website shall not be used for flight operation purposes.